Location: Newark
(44.4156°N, 12.1972°E)
Time: 20:19:36
(UTC+00:00)

STARLINK-1116 - Pass Details

Date: 02 February 2020
Orbit: 348 x 351 km, 53.0° (Epoch: 18 February)

Event Time Altitude Azimuth Distance (km) Brightness Sun altitude
Rises 17:58:26 0° 291° (WNW) 2,157 7.8 -17.6°
Reaches altitude 10° 18:00:54 10° 269° (W) 1,310 6.8 -18.0°
Maximum altitude 18:02:51 16° 227° (SW) 1,003 5.6 -18.4°
Drops below altitude 10° 18:04:46 10° 185° (S) 1,303 5.7 -18.7°
Enters shadow 18:05:42 - 174° (S) 1,588 6.0 -18.9°
